Weather History for Joplin, MO

Change the Weather History Date:

Thursday, July 11, 2013

  Actual Average Record
Temperature  
Mean Temperature 83 °F 80 °F  
Max Temperature 93 °F 90 °F 109 °F (1954)
Min Temperature 72 °F 70 °F 58 °F (1975)
Degree Days  
Heating Degree Days 0 0  
Month to date heating degree days 0 0  
Since 1 June heating degree days 12 5  
Since 1 July heating degree days 0 0  
Cooling Degree Days 18 15  
Month to date cooling degree days 143 161  
Year to date cooling degree days 610 659  
Since 1 June cooling degree days 466 479  
Growing Degree Days 32 (Base 50)    
Moisture  
Dew Point 66 °F    
Average Humidity 63    
Maximum Humidity 87    
Minimum Humidity 38    
Precipitation  
Precipitation 0.00 in 0.13 in 2.76 in (1958)
Month to date precipitation 0.09 1.54  
Year to date precipitation 27.87 25.35  
Snow  
Snow 0.00 in - - ()
Month to date snowfall 0.0  
Since 1 June snowfall 0.0  
Snow Depth 0.00 in    
Sea Level Pressure  
Sea Level Pressure 29.98 in    
Wind  
Wind Speed 7 mph (ENE)    
Max Wind Speed 15 mph    
Max Gust Speed 21 mph    
Visibility 10 miles    
Events      
T = Trace of Precipitation, MM = Missing Value Source: NWS Daily Summary

Daily Weather History Graph

Daily Weather History Graph

Search for Another Location

Airport:

Trip Planner

Search our weather history database for the weather conditions in past years. The results will help you decide how hot, cold, wet, or windy it might be!

Date:

Astronomy

Jul. 11, 2013 Rise Set
Actual Time 6:07 AM CDT 8:39 PM CDT
Civil Twilight 5:36 AM CDT 9:09 PM CDT
Nautical Twilight 4:59 AM CDT 9:47 PM CDT
Astronomical Twilight 4:17 AM CDT 10:28 PM CDT
Moon 9:20 AM CDT (7/11) 10:26 PM CDT (7/11)
Length of Visible Light 15h 32m
Length of Day
14h 32m
Waxing Crescent, 11% of the Moon is Illuminated
Jul 11
Waxing Crescent
Jul 15
First Quarter
Jul 22
Full
Jul 29
Last Quarter
Aug 6
New

Hourly Weather History & Observations

Time (CDT) Temp. Heat Index Dew Point Humidity Pressure Visibility Wind Dir Wind Speed Gust Speed Precip Events Conditions
12:53 AM 79.0 °F - 72.0 °F 79% 29.98 in 10.0 mi NE 4.6 mph - N/A   Partly Cloudy
1:53 AM 77.0 °F - 71.1 °F 82% 29.98 in 10.0 mi East 4.6 mph - N/A   Clear
2:53 AM 78.1 °F - 69.1 °F 74% 29.96 in 10.0 mi ESE 6.9 mph - N/A   Clear
3:53 AM 75.0 °F - 70.0 °F 84% 29.98 in 10.0 mi NE 3.5 mph - N/A   Clear
4:53 AM 73.9 °F - 70.0 °F 87% 29.98 in 10.0 mi NE 4.6 mph - N/A   Clear
5:53 AM 73.0 °F - 69.1 °F 87% 29.98 in 10.0 mi ENE 3.5 mph - N/A   Clear
6:53 AM 73.0 °F - 68.0 °F 84% 29.99 in 10.0 mi ENE 5.8 mph - N/A   Clear
7:53 AM 75.9 °F - 66.9 °F 74% 30.01 in 10.0 mi East 5.8 mph - N/A   Clear
8:53 AM 80.1 °F 82.9 °F 69.1 °F 69% 30.01 in 10.0 mi East 8.1 mph - N/A   Clear
9:53 AM 84.0 °F 89.0 °F 71.1 °F 65% 30.00 in 10.0 mi East 9.2 mph - N/A   Clear
10:53 AM 84.9 °F 90.1 °F 71.1 °F 63% 30.00 in 10.0 mi Variable 3.5 mph - N/A   Clear
11:53 AM 86.0 °F 90.1 °F 69.1 °F 57% 30.01 in 10.0 mi ENE 6.9 mph - N/A   Clear
12:53 PM 88.0 °F 90.3 °F 66.0 °F 48% 30.00 in 10.0 mi NNE 8.1 mph - N/A   Clear
1:53 PM 90.0 °F 91.3 °F 64.0 °F 42% 30.01 in 10.0 mi ENE 8.1 mph - N/A   Clear
2:53 PM 91.0 °F 91.9 °F 63.0 °F 39% 30.00 in 10.0 mi NE 9.2 mph - N/A   Clear
3:53 PM 91.0 °F 91.5 °F 62.1 °F 38% 29.98 in 10.0 mi ESE 6.9 mph - N/A   Clear
4:53 PM 91.9 °F 92.9 °F 63.0 °F 38% 29.96 in 10.0 mi ENE 9.2 mph - N/A   Clear
5:53 PM 90.0 °F 90.6 °F 63.0 °F 40% 29.93 in 10.0 mi ENE 10.4 mph 16.1 mph N/A   Clear
6:53 PM 88.0 °F 88.4 °F 62.1 °F 42% 29.93 in 10.0 mi ENE 10.4 mph 18.4 mph N/A   Clear
7:53 PM 84.9 °F 85.4 °F 62.1 °F 46% 29.95 in 10.0 mi ENE 6.9 mph - N/A   Clear
8:53 PM 80.1 °F 80.9 °F 60.1 °F 50% 29.95 in 10.0 mi ENE 6.9 mph - N/A   Clear
9:53 PM 77.0 °F - 60.1 °F 56% 29.96 in 10.0 mi ENE 6.9 mph - N/A   Clear
10:53 PM 75.0 °F - 61.0 °F 62% 29.96 in 10.0 mi East 5.8 mph - N/A   Clear
11:53 PM 73.9 °F - 62.1 °F 66% 29.97 in 10.0 mi East 8.1 mph - N/A   Clear